�������l�o���
Date,Time,MP-1(��Sv/h),MP-2(��Sv/h),MP-3(��Sv/h),MP-4(��Sv/h),MP-5(��Sv/h),MP-6(��Sv/h),MP-7(��Sv/h),����,����(m/s),���J
2020/05/25,00:00,0.168,0.156,0.253,0.243,0.246,0.135,0.082,��,7.9,��
2020/05/25,00:10,0.170,0.155,0.253,0.242,0.243,0.135,0.081,��,7.2,��
2020/05/25,00:20,0.169,0.156,0.254,0.243,0.244,0.136,0.081,��,7.4,��
2020/05/25,00:30,0.170,0.155,0.253,0.241,0.242,0.134,0.081,��,8.3,��
2020/05/25,00:40,0.169,0.155,0.254,0.243,0.244,0.135,0.081,��,8.3,��
2020/05/25,00:50,0.170,0.156,0.255,0.243,0.243,0.133,0.082,��,8.6,��
2020/05/25,01:00,0.170,0.156,0.254,0.243,0.244,0.135,0.082,��,7.1,��
2020/05/25,01:10,0.170,0.156,0.253,0.241,0.244,0.135,0.081,��,8.2,��
2020/05/25,01:20,0.169,0.155,0.253,0.242,0.244,0.135,0.081,��,8.1,��
2020/05/25,01:30,0.169,0.154,0.255,0.242,0.244,0.134,0.081,��,8.1,��
2020/05/25,01:40,0.170,0.156,0.254,0.243,0.244,0.135,0.082,��,9.5,��
2020/05/25,01:50,0.170,0.156,0.254,0.243,0.245,0.135,0.082,��,8.1,��
2020/05/25,02:00,0.171,0.156,0.253,0.243,0.244,0.134,0.081,��,8.8,��
2020/05/25,02:10,0.169,0.155,0.254,0.241,0.244,0.134,0.082,��,9.0,��
2020/05/25,02:20,0.169,0.156,0.253,0.243,0.243,0.134,0.081,��쐼,9.2,��
2020/05/25,02:30,0.169,0.155,0.254,0.243,0.245,0.134,0.082,��,9.2,��
2020/05/25,02:40,0.171,0.156,0.254,0.243,0.244,0.134,0.081,��,8.5,��
2020/05/25,02:50,0.170,0.155,0.255,0.244,0.245,0.135,0.081,��쐼,8.5,��
2020/05/25,03:00,0.170,0.156,0.253,0.243,0.242,0.134,0.082,��,8.1,��
2020/05/25,03:10,0.170,0.156,0.256,0.243,0.244,0.135,0.081,��,7.9,��
2020/05/25,03:20,0.170,0.155,0.254,0.244,0.243,0.135,0.081,��,8.2,��
2020/05/25,03:30,0.169,0.156,0.255,0.242,0.245,0.135,0.082,��,8.1,��
2020/05/25,03:40,0.171,0.156,0.254,0.244,0.245,0.134,0.081,��쐼,7.7,��
2020/05/25,03:50,0.170,0.157,0.254,0.242,0.245,0.134,0.081,��,7.8,��
2020/05/25,04:00,0.170,0.155,0.253,0.242,0.244,0.135,0.082,��,8.6,��
2020/05/25,04:10,0.170,0.156,0.255,0.242,0.244,0.135,0.082,��,9.6,��
2020/05/25,04:20,0.171,0.156,0.253,0.242,0.244,0.135,0.081,��,9.5,��
2020/05/25,04:30,0.170,0.155,0.255,0.243,0.245,0.135,0.081,��,8.3,��
2020/05/25,04:40,0.170,0.156,0.253,0.241,0.244,0.135,0.082,��,9.0,��
2020/05/25,04:50,0.169,0.156,0.256,0.245,0.246,0.135,0.081,��,8.3,��
2020/05/25,05:00,0.170,0.156,0.253,0.243,0.244,0.134,0.082,��,7.7,��
2020/05/25,05:10,0.170,0.155,0.255,0.245,0.245,0.135,0.081,��,6.7,��
2020/05/25,05:20,0.170,0.156,0.252,0.242,0.243,0.135,0.082,��,7.2,��
2020/05/25,05:30,0.170,0.157,0.255,0.244,0.246,0.135,0.082,��,6.2,��
2020/05/25,05:40,0.171,0.155,0.254,0.242,0.244,0.136,0.082,��,6.8,��
2020/05/25,05:50,0.168,0.156,0.255,0.244,0.245,0.133,0.082,��,7.0,��
2020/05/25,06:00,0.170,0.155,0.253,0.244,0.243,0.135,0.081,��,6.7,��
2020/05/25,06:10,0.169,0.156,0.255,0.244,0.244,0.134,0.082,��,7.6,��
2020/05/25,06:20,0.171,0.155,0.254,0.244,0.244,0.135,0.082,��,5.8,��
2020/05/25,06:30,0.169,0.154,0.255,0.242,0.243,0.135,0.082,��,4.8,��
2020/05/25,06:40,0.170,0.156,0.253,0.244,0.245,0.135,0.082,��,4.6,��
2020/05/25,06:50,0.170,0.156,0.252,0.242,0.242,0.135,0.081,��,6.1,��
2020/05/25,07:00,0.170,0.155,0.255,0.244,0.245,0.134,0.081,��,7.3,��
2020/05/25,07:10,0.169,0.155,0.254,0.242,0.245,0.135,0.081,��,7.4,��
2020/05/25,07:20,0.168,0.156,0.251,0.240,0.242,0.135,0.082,��,6.4,��
2020/05/25,07:30,0.172,0.155,0.251,0.242,0.245,0.135,0.082,��쓌,6.2,��
2020/05/25,07:40,0.170,0.156,0.256,0.242,0.245,0.136,0.081,��,8.1,��
2020/05/25,07:50,0.169,0.156,0.254,0.242,0.242,0.134,0.082,��쓌,8.2,��
2020/05/25,08:00,0.170,0.156,0.251,0.244,0.246,0.135,0.082,��,8.4,��
2020/05/25,08:10,0.169,0.155,0.256,0.242,0.243,0.136,0.082,��쓌,8.3,��
2020/05/25,08:20,0.169,0.156,0.253,0.242,0.242,0.135,0.081,��쓌,8.6,��
2020/05/25,08:30,0.170,0.154,0.252,0.245,0.246,0.134,0.082,��,8.1,��
2020/05/25,08:40,0.169,0.155,0.251,0.243,0.245,0.134,0.082,��,7.3,��
2020/05/25,08:50,0.171,0.157,0.251,0.243,0.242,0.135,0.081,��,7.5,��
2020/05/25,09:00,0.170,0.156,0.256,0.242,0.244,0.136,0.082,��쐼,4.6,��
2020/05/25,09:10,0.170,0.155,0.255,0.245,0.246,0.136,0.081,��쐼,3.8,��
2020/05/25,09:20,0.171,0.156,0.252,0.243,0.244,0.135,0.082,��쐼,3.6,��
2020/05/25,09:30,0.171,0.156,0.255,0.241,0.243,0.135,0.081,��,3.9,��
2020/05/25,09:40,0.170,0.157,0.256,0.244,0.246,0.135,0.082,��,4.3,��
2020/05/25,09:50,0.170,0.156,0.254,0.243,0.245,0.135,0.082,��,3.9,��
2020/05/25,10:00,0.170,0.155,0.254,0.241,0.243,0.135,0.082,��,5.1,��
2020/05/25,10:10,0.169,0.155,0.257,0.245,0.243,0.135,0.082,��,6.1,��
2020/05/25,10:20,0.172,0.157,0.255,0.243,0.245,0.135,0.082,��,7.5,��
2020/05/25,10:30,0.169,0.155,0.253,0.242,0.244,0.135,0.082,��,8.3,��
2020/05/25,10:40,0.169,0.155,0.252,0.241,0.242,0.135,0.081,��,8.2,��
2020/05/25,10:50,0.167,0.153,0.251,0.246,0.241,0.135,0.083,��,8.1,��
2020/05/25,11:00,0.171,0.155,0.256,0.244,0.245,0.133,0.082,��,8.3,��
2020/05/25,11:10,0.171,0.156,0.257,0.242,0.245,0.135,0.082,��,6.2,��
2020/05/25,11:20,0.171,0.155,0.255,0.241,0.243,0.135,0.082,��,6.5,��
2020/05/25,11:30,0.169,0.156,0.254,0.241,0.244,0.135,0.081,��,6.5,��
2020/05/25,11:40,0.168,0.155,0.253,0.241,0.242,0.135,0.083,��,6.8,��
2020/05/25,11:50,0.169,0.155,0.254,0.245,0.242,0.134,0.082,��,5.0,��
2020/05/25,12:00,0.172,0.156,0.253,0.243,0.244,0.135,0.082,��,4.4,��
2020/05/25,12:10,0.171,0.156,0.256,0.244,0.247,0.135,0.082,��,3.4,��
2020/05/25,12:20,0.169,0.156,0.257,0.242,0.246,0.135,0.082,��쓌,5.4,��
2020/05/25,12:30,0.171,0.157,0.254,0.245,0.243,0.134,0.082,��,4.0,��
2020/05/25,12:40,0.171,0.157,0.253,0.244,0.242,0.135,0.082,��,3.8,��
2020/05/25,12:50,0.169,0.155,0.256,0.243,0.247,0.136,0.082,��쓌,3.4,��
2020/05/25,13:00,0.170,0.154,0.258,0.242,0.246,0.136,0.082,��,5.0,��
2020/05/25,13:10,0.172,0.156,0.257,0.241,0.245,0.136,0.081,��,3.6,��
2020/05/25,13:20,0.171,0.156,0.254,0.243,0.242,0.135,0.082,��,4.3,��
2020/05/25,13:30,0.171,0.156,0.254,0.246,0.243,0.135,0.082,��,5.7,��
2020/05/25,13:40,0.169,0.155,0.254,0.245,0.243,0.134,0.082,��,6.1,��
2020/05/25,13:50,0.168,0.156,0.254,0.244,0.243,0.135,0.081,��쓌,5.4,��
2020/05/25,14:00,0.167,0.155,0.253,0.243,0.243,0.135,0.081,��쓌,7.7,��
2020/05/25,14:10,0.168,0.154,0.255,0.243,0.243,0.137,0.082,��,8.6,��
2020/05/25,14:20,0.170,0.155,0.254,0.243,0.243,0.136,0.082,��,7.5,��
2020/05/25,14:30,0.172,0.157,0.253,0.242,0.241,0.135,0.082,��,7.1,��
2020/05/25,14:40,0.169,0.156,0.254,0.243,0.243,0.135,0.083,��쓌,7.0,��
2020/05/25,14:50,0.168,0.154,0.254,0.246,0.244,0.135,0.082,��쓌,7.6,��
2020/05/25,15:00,0.169,0.155,0.259,0.244,0.248,0.135,0.082,��,5.3,��
2020/05/25,15:10,0.172,0.158,0.258,0.244,0.246,0.137,0.081,��,3.5,��
2020/05/25,15:20,0.171,0.158,0.257,0.242,0.246,0.135,0.082,��,7.9,��
2020/05/25,15:30,0.170,0.156,0.255,0.246,0.243,0.135,0.082,��,8.7,��
2020/05/25,15:40,0.169,0.157,0.254,0.246,0.243,0.136,0.082,��,8.2,��
2020/05/25,15:50,0.170,0.156,0.258,0.244,0.244,0.136,0.081,��,7.9,��
2020/05/25,16:00,0.173,0.156,0.258,0.245,0.247,0.135,0.082,��,4.6,��
2020/05/25,16:10,0.171,0.157,0.256,0.247,0.245,0.136,0.082,��,6.0,��
2020/05/25,16:20,0.171,0.156,0.257,0.246,0.244,0.135,0.082,��,6.6,��
2020/05/25,16:30,0.172,0.156,0.259,0.244,0.247,0.136,0.083,��,6.0,��
2020/05/25,16:40,0.170,0.157,0.256,0.248,0.246,0.135,0.082,��,6.7,��
2020/05/25,16:50,0.170,0.156,0.256,0.246,0.243,0.136,0.083,��,6.1,��
2020/05/25,17:00,0.172,0.156,0.259,0.245,0.247,0.136,0.082,��,5.8,��
2020/05/25,17:10,0.170,0.157,0.257,0.248,0.247,0.135,0.083,��,6.2,��
2020/05/25,17:20,0.171,0.156,0.257,0.245,0.243,0.136,0.082,��,4.7,��
2020/05/25,17:30,0.172,0.157,0.259,0.246,0.247,0.135,0.082,��,5.0,��
2020/05/25,17:40,0.169,0.156,0.255,0.246,0.246,0.136,0.082,��쐼,5.4,��
2020/05/25,17:50,0.172,0.156,0.257,0.245,0.244,0.136,0.083,��쐼,5.2,��
2020/05/25,18:00,0.170,0.157,0.257,0.247,0.246,0.135,0.082,��쐼,5.3,��
2020/05/25,18:10,0.171,0.156,0.256,0.245,0.245,0.136,0.083,��쐼,4.9,��
2020/05/25,18:20,0.172,0.157,0.258,0.244,0.245,0.136,0.083,��,4.6,��
2020/05/25,18:30,0.170,0.157,0.256,0.248,0.246,0.135,0.082,��,4.5,��
2020/05/25,18:40,0.172,0.156,0.258,0.245,0.245,0.136,0.082,��쐼,4.2,��
2020/05/25,18:50,0.171,0.158,0.258,0.247,0.246,0.136,0.082,��쐼,4.9,��
2020/05/25,19:00,0.171,0.156,0.257,0.245,0.247,0.135,0.083,��쐼,5.5,��
2020/05/25,19:10,0.171,0.158,0.259,0.245,0.244,0.137,0.083,�쐼,4.5,��
2020/05/25,19:20,0.171,0.156,0.256,0.248,0.247,0.136,0.082,�쐼,3.8,��
2020/05/25,19:30,0.172,0.157,0.258,0.245,0.245,0.137,0.083,�쐼,2.1,��
2020/05/25,19:40,0.172,0.156,0.257,0.247,0.246,0.137,0.082,��,1.8,��
2020/05/25,19:50,0.170,0.158,0.258,0.245,0.247,0.135,0.083,��,1.6,��
2020/05/25,20:00,0.172,0.157,0.259,0.245,0.244,0.136,0.083,���k��,1.7,��
2020/05/25,20:10,0.172,0.158,0.257,0.248,0.247,0.137,0.084,���k��,1.2,��
2020/05/25,20:20,0.173,0.158,0.260,0.245,0.245,0.136,0.082,���k��,0.7,��
2020/05/25,20:30,0.171,0.156,0.257,0.248,0.245,0.137,0.083,�k��,0.7,��
2020/05/25,20:40,0.172,0.158,0.259,0.244,0.246,0.136,0.084,���k��,1.7,��
2020/05/25,20:50,0.172,0.158,0.256,0.248,0.245,0.136,0.083,�k��,0.9,��
2020/05/25,21:00,0.171,0.157,0.258,0.245,0.247,0.136,0.084,���k��,1.1,��
2020/05/25,21:10,0.172,0.158,0.258,0.246,0.246,0.137,0.083,�k�k��,1.0,��
2020/05/25,21:20,0.172,0.158,0.257,0.247,0.245,0.136,0.084,�k�k��,0.8,��
2020/05/25,21:30,0.171,0.158,0.260,0.246,0.248,0.137,0.083,�k,1.3,��
2020/05/25,21:40,0.173,0.158,0.257,0.248,0.245,0.138,0.084,�k,2.0,��
2020/05/25,21:50,0.172,0.158,0.260,0.245,0.248,0.136,0.083,�k,1.4,��
2020/05/25,22:00,0.173,0.158,0.258,0.250,0.246,0.137,0.083,�k,1.1,��
2020/05/25,22:10,0.171,0.158,0.259,0.246,0.246,0.136,0.084,�k�k��,1.2,��
2020/05/25,22:20,0.173,0.158,0.258,0.247,0.248,0.137,0.083,�k�k��,1.2,��
2020/05/25,22:30,0.171,0.158,0.258,0.247,0.244,0.136,0.084,�k�k��,1.6,��
2020/05/25,22:40,0.173,0.157,0.260,0.247,0.248,0.137,0.083,�k�k��,2.8,�L
2020/05/25,22:50,0.173,0.158,0.258,0.248,0.246,0.137,0.083,�k�k��,3.3,��
2020/05/25,23:00,0.172,0.157,0.260,0.246,0.246,0.137,0.084,�k�k��,3.8,��
2020/05/25,23:10,0.173,0.159,0.259,0.248,0.248,0.137,0.084,�k�k��,3.8,��
2020/05/25,23:20,0.171,0.158,0.259,0.246,0.244,0.137,0.083,�k�k��,4.5,��
2020/05/25,23:30,0.173,0.159,0.259,0.249,0.248,0.137,0.083,�k��,5.0,�L
2020/05/25,23:40,0.173,0.158,0.259,0.246,0.247,0.139,0.085,�k��,4.5,�L
2020/05/25,23:50,0.174,0.159,0.260,0.249,0.247,0.140,0.086,���k��,2.5,�L
